CZ-4C DEB, 43265

Orbit data source: Space-Track

CZ-4C DEB, 43265 is space debris in SSO originally from a launch on Sat, 31 Mar 2018 UTC launched from the Taiyaun Space Center, China (TSC). Debris objects in space refer to the collection of defunct objects orbiting the Earth. Examples of debris include non-operational satellites, rocket bodies, and fragments generated from explosions, collisions, or faulty payload assembly.

Loading next visibility...
Identifier
43265, 2018-031G
Orbit
SSO
Country
Flag of CNCN / PRC
Related business
Manufacturer
Unknown
Mission
Spacecraft
Bus & Motor
Unknown
Mass
Unknown
Launch date (UTC)
2018-03-31 (8 years ago)
Launch vehicle
Unknown
Launch site
Taiyaun Space Center, China (TSC)
Object type
Payload
Rocket body
Debris
Shape & HBR
Unknown shape, 2.1 m
Radar Cross Section
Large (>1 m²)

Expand to show TLE details & history
Last TLE update: 6 hours ago

TLE from 6 hours ago
0 CZ-4C DEB
1 43265U 18031G   26265.23249197  .00004501  00000-0  32136-3 0  9999
2 43265  97.7658 349.6443 0006913 301.0254  59.0292 15.05019436459033
Epoch: 2026-09-22T05:34Z
TLE epoch observation values (Epoch: 2026-09-22T05:34:47.306Z)
Latitude
-0.00007°
Longitude
-95.15372°
Altitude
552.042 km
Speed
7.587 km/s
True Right ascension
23h 18m 34s
True Declination
0° 00' 00"
Sunlit
Object was in full shadow at epoch
Visualization orbit readout
Latitude
Unknown
Longitude
Unknown
Altitude
Unknown
Speed
Unknown
Apparent Right ascension
Unknown
Apparent Declination
Unknown
Sunlit
N/A
Visualization observer readout
Local Sidereal Time
04:21:27
Azimuth
Unknown
Elevation
Unknown
Doppler factor
Unknown
Orbital elements
Apogee altitude
553.236 km
Perigee altitude
543.659 km
Semi-major axis
6,926.585 km
Eccentricity
0.00069
Inclination
97.7658°
RAAN
349.6443°
Arg. of periapsis
301.0254°
True anomaly
59.09715°
Mean anomaly
59.0292°
Eccentric anomaly
59.06317°
Mean motion
3.765 °/min
Orbital period
95.62 mins
BSTAR
0.00032136
Loading maneuver chart data...
Computing Atmospheric mass density...
Loading historical data...
Loading historical data...
Loading historical data...
Loading historical data...
Loading historical data...
Loading historical data...
Loading historical data...

Documentation

Showing up to 5 results
|